SCP
0 0 0 0 0 0 0 0 0 0 0 0 0 0 0 0 0 0 0 0 0 0 0 0 0 0 0 0 0 0 0 0 0 0 0 0 0 0 0 0 0 0 0 0 0 0 0 0 0
0 0 0 0 0 0 0 0 0 0 0 0 0 0 0 0 0 0 0 0 0 0 0 0 0 0 0 0 0 0 0 0 0 0 0 0 0 0 0 0 0 0 0 0 0 0 0 0 0
0 0 0 0 0 0 0 0 0 0 0 0 0 0 0 0 0 0 0 0 0 0 0 0 0 0 0 0 0 0 0 0 0 0 0 0 0 0 0 0 0 0 0 0 0 0 0 0 0
0 0 0 0 0 0 0 0 0 0 0 0 0 0 0 0 0 0 0 0 0 0 0 0 0 0 0 0 0 0 0 0 0 0 0 0 0 0 0 0 0 0 0 0 0 0 0 0 0
0 0 0 0 0 0 0 0 0 0 0 0 0 0 0 0 0 0 0 0 0 0 0 0 0 0 0 0 0 0 0 0 0 0 0 0 0 0 0 0 0 0 0 0 0 0 0 0 0
0 0 0 0 0 0 0 0 0 0 0 0 0 0 0 0 0 0 0 0 0 0 0 0 0 0 0 0 0 0 0 0 0 0 0 0 0 0 0 0 0 0 0 0 0 0 0 0 0
0 0 0 0 0 0 0 0 0 0 0 0 0 0 0 0 0 0 0 0 0 0 0 0 0 0 0 0 0 0 0 0 0 0 0 0 0 0 0 0 0 0 0 0 0 0 0 0 0
0 0 0 0 0 0 0 0 0 0 0 0 0 0 0 0 0 0 0 0 0 0 0 0 0 0 0 0 0 0 0 0 0 0 0 0 0 0 0 0 0 0 0 0 0 0 0 0 0
0 0 0 0 0 0 0 0 0 0 0 0 0 0 0 0 0 0 0 0 0 0 0 0 0 0 0 0 0 0 0 0 0 0 0 0 0 0 0 0 0 0 0 0 0 0 0 0 0
0 0 0 0 0 0 0 0 0 0 0 0 0 0 0 0 0 0 0 0 0 0 0 0 0 0 0 0 0 0 0 0 0 0 0 0 0 0 0 0 0 0 0 0 0 0 0 0 0
0 0 0 0 0 0 0 0 0 0 0 0 0 0 0 0 0 0 0 0 0 0 0 0 0 0 0 0 0 0 0 0 0 0 0 0 0 0 0 0 0 0 0 0 0 0 0 0 0
0 0 0 0 0 0 0 0 0 0 0 0 0 0 0 0 0 0 0 0 0 0 0 0 0 0 0 0 0 0 0 0 0 0 0 0 0 0 0 0 0 0 0 0 0 0 0 0 0
0 0 0 0 0 0 0 0 0 0 0 0 0 0 0 0 0 0 0 0 0 0 0 0 0 0 0 0 0 0 0 0 0 0 0 0 0 0 0 0 0 0 0 0 0 0 0 0 0
0 0 0 0 0 0 0 0 0 0 0 0 0 0 0 0 0 0 0 0 0 0 0 0 0 0 0 0 0 0 0 0 0 0 0 0 0 0 0 0 0 0 0 0 0 0 0 0 0
0 0 0 0 0 0 0 0 0 0 0 0 0 0 0 0 0 0 0 0 0 0 0 0 0 0 0 0 0 0 0 0 0 0 0 0 0 0 0 0 0 0 0 0 0 0 0 0 0
0 0 0 0 0 0 0 0 0 0 0 0 0 0 0 0 0 0 0 0 0 0 0 0 0 0 0 0 0 0 0 0 0 0 0 0 0 0 0 0 0 0 0 0 0 0 0 0 0
0 0 0 0 0 0 0 0 0 0 0 0 0 0 0 0 0 0 0 0 0 0 0 0 0 0 0 0 0 0 0 0 0 0 0 0 0 0 0 0 0 0 0 0 0 0 0 0 0
0 0 0 0 0 0 0 0 0 0 0 0 0 0 0 0 0 0 0 0 0 0 0 0 0 0 0 0 0 0 0 0 0 0 0 0 0 0 0 0 0 0 0 0 0 0 0 0 0
0 0 0 0 0 0 0 0 0 0 0 0 0 0 0 0 0 0 0 0 0 0 0 0 0 0 0 0 0 0 0 0 0 0 0 0 0 0 0 0 0 0 0 0 0 0 0 0 0
0 0 0 0 0 0 0 0 0 0 0 0 0 0 0 0 0 0 0 0 0 0 0 0 0 0 0 0 0 0 0 0 0 0 0 0 0 0 0 0 0 0 0 0 0 0 0 0 0
0 0 0 0 0 0 0 0 0 0 0 0 0 0 0 0 0 0 0 0 0 0 0 0 0 0 0 0 0 0 0 0 0 0 0 0 0 0 0 0 0 0 0 0 0 0 0 0 0
0 0 0 0 0 0 0 0 0 0 0 0 0 0 0 0 0 0 0 0 0 0 0 0 0 0 0 0 0 0 0 0 0 0 0 0 0 0 0 0 0 0 0 0 0 0 0 0 0
0 0 0 0 0 0 0 0 0 0 0 0 0 0 0 0 0 0 0 0 0 0 0 0 0 0 0 0 0 0 0 0 0 0 0 0 0 0 0 0 0 0 0 0 0 0 0 0 0
0 0 0 0 0 0 0 0 0 0 0 0 0 0 0 0 0 0 0 0 0 0 0 0 0 0 0 0 0 0 0 0 0 0 0 0 0 0 0 0 0 0 0 0 0 0 0 0 0
0 0 0 0 0 0 0 0 0 0 0 0 0 0 0 0 0 0 0 0 0 0 0 0 0 0 0 0 0 0 0 0 0 0 0 0 0 0 0 0 0 0 0 0 0 0 0 0 0
0 0 0 0 0 0 0 0 0 0 0 0 0 0 0 0 0 0 0 0 0 0 0 0 0 0 0 0 0 0 0 0 0 0 0 0 0 0 0 0 0 0 0 0 0 0 0 0 0
0 0 0 0 0 0 0 0 0 0 0 0 0 0 0 0 0 0 0 0 0 0 0 0 0 0 0 0 0 0 0 0 0 0 0 0 0 0 0 0 0 0 0 0 0 0 0 0 0
0 0 0 0 0 0 0 0 0 0 0 0 0 0 0 0 0 0 0 0 0 0 0 0 0 0 0 0 0 0 0 0 0 0 0 0 0 0 0 0 0 0 0 0 0 0 0 0 0
0 0 0 0 0 0 0 0 0 0 0 0 0 0 0 0 0 0 0 0 0 0 0 0 0 0 0 0 0 0 0 0 0 0 0 0 0 0 0 0 0 0 0 0 0 0 0 0 0
0 0 0 0 0 0 0 0 0 0 0 0 0 0 0 0 0 0 0 0 0 0 0 0 0 0 0 0 0 0 0 0 0 0 0 0 0 0 0 0 0 0 0 0 0 0 0 0 0
Wind_Speed
8 5 2 4 6 4 2 3 2 0 1 1 3 6 7 4 3 3 1 3 4 4 3 3 4 6 7 8 9 8 8 9 9 9 9 9 9 10 10 9 9 9 9 9 9 10 10 10 10
3 3 4 5 5 2 4 3 2 2 3 2 4 5 6 4 3 4 1 2 4 4 3 3 4 6 7 8 8 8 8 8 8 8 9 9 9 9 9 9 9 8 8 9 9 10 10 9 10
3 2 4 5 3 5 4 2 3 1 1 1 3 4 4 3 2 2 1 3 4 4 3 3 4 6 7 8 8 8 8 8 8 8 8 8 8 9 9 9 9 8 8 9 9 9 9 9 9
2 4 5 4 3 4 4 2 2 2 2 3 4 4 3 2 1 2 3 5 5 4 3 3 5 6 7 7 8 8 8 8 8 8 8 8 8 8 8 8 8 8 8 8 8 9 9 8 9
4 4 4 0 4 3 2 2 1 1 1 1 3 4 2 2 2 4 4 5 6 4 3 3 5 5 6 7 7 7 8 8 8 7 7 7 7 7 7 8 8 8 8 8 8 8 8 7 8
4 4 3 3 5 3 2 1 1 1 1 1 3 4 2 1 3 3 4 5 5 5 3 3 4 5 5 6 6 7 7 7 8 7 7 7 6 7 7 7 7 7 7 7 7 7 7 7 7
4 4 3 4 3 3 2 0 2 2 2 1 2 4 2 1 1 3 4 4 4 4 3 2 2 3 4 5 5 6 6 7 7 7 7 7 6 6 7 7 6 6 7 7 7 6 6 6 7
4 4 2 3 3 3 1 1 1 2 2 1 2 5 4 4 2 4 4 4 4 3 3 2 2 2 2 2 4 5 5 6 6 6 6 6 6 6 6 6 6 6 6 6 6 6 6 5 6
3 3 3 4 4 3 0 2 2 1 3 2 2 2 3 6 6 5 4 3 3 2 2 2 2 1 1 2 3 3 4 4 5 5 5 5 3 3 3 4 6 6 5 6 6 6 6 6 6
4 4 5 2 2 2 1 1 1 2 2 1 2 2 4 6 6 6 5 4 3 2 1 1 1 1 1 1 2 1 1 2 2 2 3 2 2 2 3 4 5 5 5 4 5 6 6 5 2
3 4 3 1 1 1 1 0 0 3 2 4 4 5 5 5 5 5 4 4 4 3 2 1 1 1 1 1 1 1 1 1 2 2 2 2 2 2 2 2 2 2 3 2 3 3 2 2 2
2 1 1 1 1 1 1 1 0 2 4 3 5 7 7 6 5 5 4 3 2 2 2 2 2 1 1 1 1 1 1 1 1 1 2 2 2 1 1 1 1 1 1 1 2 1 2 2 2
2 1 0 0 1 1 1 1 1 3 3 2 4 5 6 6 5 4 4 3 2 2 2 2 2 2 2 2 1 1 1 1 1 1 1 3 2 2 1 1 1 1 1 1 1 1 2 2 2
2 1 1 1 1 1 1 2 1 5 3 3 5 5 5 5 5 4 3 3 3 3 2 2 2 2 3 2 2 1 1 1 1 1 1 2 2 2 2 1 1 1 1 1 1 1 1 1 1
1 1 2 2 2 2 1 4 5 5 3 4 4 5 5 5 5 5 5 5 4 3 3 2 3 2 3 2 2 1 1 1 1 1 1 2 2 2 2 2 1 0 1 1 1 1 1 1 1
1 0 2 3 3 2 3 7 5 3 5 5 4 4 5 5 5 5 5 4 4 3 3 3 2 3 3 2 2 1 1 1 1 0 1 2 2 2 2 2 1 0 1 1 1 1 1 1 1
0 2 4 4 2 2 3 7 5 2 5 6 5 5 5 4 3 4 4 4 4 4 4 3 2 3 3 2 2 1 1 1 1 1 1 1 2 2 2 2 1 1 2 1 1 1 1 1 1
4 3 3 4 2 2 4 7 6 3 5 6 5 5 5 5 5 4 4 3 3 3 4 3 3 3 3 2 1 1 1 1 1 1 1 1 2 2 2 2 2 2 2 1 1 1 1 1 0
4 3 4 5 2 3 6 9 9 5 5 6 6 5 5 5 3 2 2 2 2 2 3 3 3 3 3 2 2 1 1 1 0 1 1 1 2 2 2 2 2 2 2 2 1 1 1 1 1
3 3 4 4 1 2 4 9 8 6 7 7 7 7 5 3 1 2 2 2 2 3 2 3 3 4 3 3 2 2 1 1 0 0 0 1 2 2 3 2 2 3 2 2 2 2 1 1 1
4 5 5 4 3 2 2 7 5 4 3 4 5 5 5 5 5 4 3 3 2 2 3 2 3 3 3 3 2 2 1 1 0 0 0 1 2 2 2 3 2 3 3 3 3 3 2 2 0
6 4 3 2 1 3 1 5 7 4 3 4 5 4 4 4 5 4 3 3 3 3 2 2 2 2 3 3 4 4 3 2 2 1 1 1 0 2 2 3 2 3 3 3 3 3 2 3 2
4 1 2 2 2 2 2 3 8 2 5 7 6 5 5 4 5 5 4 4 2 1 1 1 1 1 2 3 4 4 3 2 1 1 1 1 1 1 1 3 3 3 3 3 3 3 3 3 3
2 2 2 2 2 4 5 5 8 5 7 5 4 4 4 4 3 3 2 2 1 1 1 1 1 0 1 3 3 3 4 3 2 2 2 1 1 1 1 1 3 3 3 4 4 4 4 3 3
2 4 2 3 1 7 3 4 10 6 4 5 5 5 4 4 4 3 3 2 2 2 1 1 1 0 1 2 3 3 4 4 4 4 3 2 1 1 2 2 2 3 3 4 4 4 4 4 4
4 5 6 5 5 5 2 7 8 3 2 2 3 4 3 3 3 4 4 4 3 3 2 2 1 1 0 1 2 2 3 2 2 3 3 3 3 3 3 3 3 3 3 3 4 4 4 4 4
4 3 3 3 0 2 6 6 7 1 0 0 1 2 3 3 3 3 3 3 3 3 3 3 2 1 0 1 1 1 2 2 2 2 2 2 2 2 3 3 3 2 3 3 4 4 4 4 4
2 4 3 3 3 4 5 5 5 4 4 2 2 2 3 2 2 2 2 2 2 2 1 1 1 1 1 0 0 0 1 2 2 2 2 2 2 2 2 2 2 2 2 3 3 3 4 4 4
2 2 3 3 3 4 4 7 4 4 4 5 5 4 4 4 3 3 2 1 1 1 1 1 1 1 0 0 0 0 1 1 1 2 2 2 2 2 2 2 2 2 2 3 3 3 4 5 4
2 4 5 4 5 4 4 8 2 2 3 4 3 3 3 3 3 3 2 2 2 2 1 1 1 0 0 0 0 0 0 0 1 1 2 2 2 2 2 3 3 3 3 3 3 3 3 4 5
Wind_Direction
332 334 46 58 61 61 227 248 227 275 60 46 73 92 104 99 114 147 127 119 120 141 156 147 132 124 115 111 109 106 103 98 96 97 93 90 89 89 86 82 80 79 77 75 75 76 76 73 71
333 345 53 62 97 144 251 248 224 223 190 137 66 76 83 79 68 98 88 131 127 137 139 143 130 124 116 114 112 109 106 101 97 98 97 94 93 91 89 84 79 78 78 78 78 79 77 76 74
325 53 77 80 127 183 210 228 192 192 27 86 76 55 88 111 112 135 183 135 114 120 130 138 122 123 120 119 116 112 108 105 99 97 99 95 95 94 90 86 80 77 78 80 81 81 79 77 75
49 51 59 85 202 222 207 216 177 129 27 36 99 78 64 40 131 151 127 119 113 108 116 135 120 121 123 123 120 116 112 109 103 97 99 95 91 91 90 87 83 79 78 81 85 85 82 77 75
65 80 81 101 233 235 225 230 174 149 153 36 99 105 84 12 75 102 107 119 119 106 97 124 119 118 122 123 122 117 114 110 103 98 97 97 92 88 87 85 83 80 80 80 82 88 85 77 73
66 79 114 208 233 245 260 217 161 128 131 67 95 112 138 115 95 106 108 115 122 117 103 105 115 113 118 120 120 117 114 108 101 98 94 95 92 88 87 84 82 80 80 80 81 85 86 79 75
113 114 169 197 218 241 240 190 129 145 131 150 128 120 153 202 169 121 108 101 102 107 104 97 104 112 116 116 116 115 111 106 100 95 88 83 82 82 77 76 77 79 80 78 77 77 84 83 76
133 121 174 204 198 225 208 95 78 115 154 57 97 140 189 211 159 113 101 96 95 95 102 108 98 94 109 120 116 113 111 106 101 95 87 81 77 74 71 65 62 69 77 78 73 69 69 77 76
99 102 199 206 188 198 147 86 17 46 94 55 53 138 169 143 126 113 100 88 93 90 90 97 96 88 98 115 115 121 120 110 104 100 94 90 84 76 67 65 64 60 67 76 73 68 64 63 64
106 168 213 215 184 168 152 125 168 90 65 55 41 60 108 125 133 135 138 141 143 143 128 98 104 100 105 119 111 118 114 104 98 95 100 99 90 79 73 66 62 55 52 67 70 65 65 60 52
142 184 195 232 232 157 153 285 356 137 211 215 186 158 138 136 142 153 162 161 168 167 150 138 133 127 106 91 112 105 100 99 97 99 96 93 87 77 69 65 54 49 52 58 62 56 52 57 55
141 232 184 211 246 150 176 170 296 203 217 197 173 154 152 154 162 169 172 174 161 154 164 159 153 142 125 96 104 115 110 115 110 121 117 112 104 88 86 77 55 50 52 51 60 51 39 47 60
200 227 324 63 56 88 99 201 214 248 233 178 141 146 162 167 172 177 176 169 152 162 176 169 155 149 144 126 111 101 128 134 139 120 124 127 132 136 131 104 65 45 57 71 67 60 52 48 50
170 155 262 270 251 234 175 270 227 249 210 156 160 177 184 182 181 174 177 184 182 183 187 180 170 157 142 138 139 143 132 131 131 137 141 140 141 146 146 128 105 71 64 92 107 79 70 52 48
128 77 318 258 212 209 137 298 237 232 164 177 192 196 196 202 190 190 191 190 190 189 177 179 176 159 150 147 147 144 142 116 135 152 147 137 137 146 148 145 136 127 102 82 76 63 66 56 42
81 83 272 262 189 195 154 252 256 209 170 199 206 207 206 213 207 203 195 186 184 179 174 179 170 168 167 157 158 154 151 148 160 172 159 150 139 141 148 141 142 119 106 99 95 84 77 52 33
52 217 236 271 207 165 183 243 262 213 183 205 213 213 211 218 226 214 198 188 183 182 178 179 174 176 178 169 157 154 151 154 161 161 170 163 147 151 156 147 145 130 112 96 103 95 118 90 14
206 212 233 238 244 180 230 252 265 246 206 215 218 219 216 218 230 217 200 191 183 179 174 176 181 177 166 152 128 112 111 140 162 173 192 158 153 150 154 148 139 132 123 108 98 110 82 109 9
171 186 236 253 244 205 235 254 260 249 222 222 226 222 218 223 229 198 181 174 161 163 164 176 179 175 157 155 165 170 191 203 204 195 186 165 152 149 147 152 146 140 142 149 139 121 111 70 45
193 214 250 281 280 222 256 267 263 240 221 214 215 215 216 210 192 192 180 168 169 171 174 177 181 180 175 174 177 178 176 186 215 295 226 183 165 161 148 154 164 160 152 141 138 130 130 120 67
224 218 228 246 322 317 309 295 272 254 228 223 212 213 208 196 199 201 192 191 181 188 187 188 191 183 181 164 133 110 84 64 48 267 271 294 185 165 154 156 168 168 163 167 169 161 142 166 138
238 227 222 222 215 271 183 276 277 251 258 238 230 225 217 211 199 194 189 193 201 210 198 187 181 177 174 161 157 158 170 194 215 210 223 267 224 176 169 159 172 175 175 175 179 172 166 164 175
221 192 205 216 210 270 237 230 277 256 246 243 230 222 218 208 193 188 190 193 190 173 165 182 167 167 172 167 166 170 178 196 191 178 199 224 257 207 185 175 174 182 183 184 181 175 173 173 180
146 70 35 40 90 253 222 200 268 229 224 233 222 215 209 201 193 187 174 144 132 114 112 127 134 171 185 173 171 175 182 182 176 193 205 216 242 244 231 209 188 187 189 191 190 184 183 183 179
113 110 43 354 320 247 219 213 250 243 226 208 207 210 206 189 175 170 165 164 163 155 147 136 150 222 247 188 186 189 191 189 196 200 201 203 216 231 228 217 215 204 198 197 188 184 191 193 188
192 163 168 197 225 269 253 231 250 255 255 216 194 190 179 175 179 182 186 182 179 177 171 162 174 198 255 225 216 200 190 192 209 211 205 206 212 223 218 211 216 217 206 202 192 189 196 197 199
165 201 189 149 90 263 259 274 293 245 302 191 154 150 176 187 189 188 187 183 179 182 183 176 174 173 224 250 243 218 199 195 210 226 212 209 213 213 204 203 216 221 214 208 198 200 200 199 204
171 157 122 147 176 243 271 258 247 238 234 225 205 206 216 201 194 190 184 183 176 176 164 140 154 179 218 238 248 252 230 208 205 201 219 210 212 210 202 202 209 217 221 217 209 215 208 205 212
167 169 168 165 184 189 251 264 240 218 204 199 212 211 208 201 199 196 191 183 154 129 131 141 137 117 80 288 294 298 293 241 197 199 219 217 214 207 209 207 207 213 223 220 217 225 218 215 221
204 195 170 179 227 217 230 264 277 216 196 186 202 209 204 197 188 181 173 153 136 138 146 157 150 124 292 300 317 254 276 276 206 220 226 216 218 217 213 208 209 219 228 227 223 230 233 226 224